This is the latest recevied weather packets stored in our database for station/object SQ6XL-13. If no packets are shown the sender has not sent any weather packets the latest 10 day(s).
| Time | Temp. | Humidity | Pressure | Rain* | Wind** | Luminosity | Snow |
|---|---|---|---|---|---|---|---|
| 1787606380 | 10° C | 92% | 1022 hPa | 0 mm | - | - | - |
| 1787605865 | 10° C | 92% | 1021.9 hPa | 0.25 mm | - | - | - |
| 1787605290 | 10° C | 91% | 1021.8 hPa | 0.51 mm | - | - | - |
| 1787604690 | 10° C | 91% | 1021.9 hPa | 0 mm | - | - | - |
| 1787604105 | 10.56° C | 91% | 1021.8 hPa | 0 mm | - | - | - |
| 1787603510 | 10.56° C | 90% | 1021.9 hPa | 0 mm | - | - | - |
| 1787602979 | 10.56° C | 90% | 1021.8 hPa | 0 mm | - | - | - |
| 1787602430 | 11.11° C | 90% | 1021.7 hPa | 0 mm | - | - | - |
| 1787601890 | 11.11° C | 89% | 1021.7 hPa | 0 mm | - | - | - |
| 1787601330 | 11.11° C | 89% | 1021.7 hPa | 0 mm | - | - | - |
| 1787600795 | 11.11° C | 89% | 1021.7 hPa | 0 mm | - | - | - |
| 1787600231 | 11.11° C | 88% | 1021.9 hPa | 0 mm | - | - | - |
| 1787599685 | 11.67° C | 87% | 1022 hPa | 0 mm | - | - | - |
| 1787599115 | 11.67° C | 86% | 1022 hPa | 0 mm | - | - | - |
| 1787598556 | 11.67° C | 86% | 1022 hPa | 0 mm | - | - | - |
| 1787598005 | 12.22° C | 85% | 1022.2 hPa | 0 mm | - | - | - |
| 1787597520 | 12.22° C | 84% | 1022.2 hPa | 0 mm | - | - | - |
| 1787596930 | 12.78° C | 84% | 1022.2 hPa | 0 mm | - | - | - |
| 1787596385 | 13.33° C | 83% | 1022 hPa | 0 mm | - | - | - |
| 1787595870 | 13.33° C | 81% | 1022 hPa | 0 mm | - | - | - |
| 1787595280 | 13.89° C | 81% | 1022 hPa | 0 mm | - | - | - |
| 1787594760 | 13.89° C | 79% | 1022 hPa | 0 mm | - | - | - |
| 1787594265 | 14.44° C | 77% | 1022 hPa | 0 mm | - | - | - |
| 1787593695 | 15.56° C | 74% | 1022 hPa | 0 mm | - | - | - |
| 1787593180 | 16.11° C | 72% | 1022 hPa | 0 mm | - | - | - |
* Rain latest hour (hover to see other rain measurements)
** Current wind speed in m/s (hover to see current wind gust speed)